www.pogodaiklimat.ru

Погода и климат >> Архив погоды >> Мексика >> Monterrey


ПОГОДА в Monterrey

  • Прогноз погоды в Monterrey
  • Монитор погоды в Monterrey
  • Климат города

АРХИВ ПОГОДЫ в Monterrey

Время (UTC), дата Ветер
(напр.,м/с)
 
Видим.   Явления Облачность Т
(С)
Тd
(С)
f
(%)
Тe
(С)
Тes
(С)
Комфортность P
(гПа)
Po
(гПа)
Тmin
(С)
Tmax
(С)
R
(мм)
R24
(мм)
S
(см)
00 14.05 ЮВ 1 1000 м мгла {туман} 9/0
[Cs]
+28.8 +21.3 64 +36 +38 очень
душно
1008.3 953.2 +22.0 +34.0
03 14.05 В 2 1000 м мгла {туман} 8/8 800 м
[Sc]
+27.0 +20.5 68 +34 +34 очень
душно
1009.6 954.7
12 14.05 В 1 1000 м мгла {туман} 10/10 100 м
[Frnb]
+23.8 +22.7 94 +31 +31 очень
душно
1010.7 955.0 +23.4 +34.0
15 14.05 СВ 1 1000 м мгла {туман} 10/10 120 м
[Frnb]
+23.4 +22.3 94 +32 +32 очень
душно
1011.9 956.0 0.0
18 14.05 ЮВ 1 1000 м мгла 8/8 720 м
[Sc]
+28.6 +22.9 71 +38 +43 очень
душно
1012.2 956.2 +23.4 +29.0 0.0
21 14.05 ЮВ 1 2000 м мгла 3/3 1140 м
[Sc]
+31.6 +22.3 58 +41 +54 опасность
перегрева
1008.5 953.0
00 15.05 В 2 4000 м мгла {туман} 9/5 1000 м
[Sc Ac As]
+31.0 +21.0 55 +38 +39 очень
душно
1007.4 952.3 +23.4 +33.0
03 15.05 В 2 2000 м мгла {туман} 6/6 1080 м
[Sc]
+28.8 +20.1 59 +35 +35 очень
душно
1007.7 952.9
06 15.05 СВ 2 1000 м 5/5 400 м
[Sc]
+23.8 +20.7 83 +30 +30 очень
душно
1010.8 955.7 +23.4 +33.0
09 15.05 В 3 1000 м 3/3 270 м
[St]
+22.8 +20.5 87 +30 +30 очень
душно
1010.5 955.1
12 15.05 В 1 1000 м дым 4/0
[Ac lent]
+22.0 +20.6 92 +28 +28 душно 1009.8 954.0 +22.0 +33.0
15 15.05 СВ 1 1000 м дым 4/4 450 м
[Sc]
+25.0 +21.4 80 +32 +38 очень
душно
1012.1 956.0
18 15.05 В 2 1000 м дым 3/3 1110 м
[Sc]
+30.2 +21.1 58 +38 +53 опасность
солнечного
удара
1010.3 954.5 +22.0 +31.4
21 15.05 ЮВ 1 2000 м дым 3/3 1320 м
[Sc]
+32.4 +21.7 53 +41 +54 опасность
перегрева
1009.5 954.0
06 16.05 В 5 1000 м 1/1 450 м
[Sc]
+25.2 +21.6 80 +32 +32 очень
душно
1010.3 955.4 +22.0 +35.0
09 16.05 В 4 1000 м 10/10 270 м
[St]
+23.8 +21.6 87 +30 +30 очень
душно
1010.1 954.9
12 16.05 В 1 1000 м мгла {туман} 10/10 240 м
[Frnb]
+23.4 +21.4 89 +32 +32 очень
душно
1010.1 954.5 +23.0 +35.0
15 16.05 СВ 1 1000 м мгла {туман} 6/6 540 м
[Sc]
+26.2 +21.8 77 +34 +38 очень
душно
1011.9 956.0
18 16.05 СВ 1 1000 м мгла 3/3 1260 м
[Sc]
+31.4 +21.2 55 +39 +57 опасность
солнечного
удара
1011.8 956.0 +23.0 +32.4
21 16.05 ЮВ 1 2000 м дым 1/1 1500 м
[Sc]
+35.4 +20.1 41 +41 +58 опасность
перегрева
1009.1 954.0
00 17.05 В 3 5000 м ясно +31.0 +21.7 58 +39 +41 очень
душно
1007.5 952.9 +23.0 +36.2
03 17.05 ЮВ 2 3000 м мгла {туман} 3/0
[As trans]
+29.6 +20.7 59 +37 +37 очень
душно
1008.5 954.0
06 17.05 В 2 2000 м мгла {туман} 4/0
[As trans]
+26.6 +20.7 70 +33 +33 очень
душно
1008.6 954.0 +23.0 +36.2
09 17.05 СВ 2 1000 м 1/1 240 м
[St]
+23.0 +21.0 89 +31 +31 очень
душно
1008.7 953.7
18 17.05 В 1 2000 м дым ясно +31.6 +20.1 51 +38 +63 опасность
солнечного
удара
1009.9 954.3 +22.4 +33.6
21 17.05 ЮВ 1 3000 м дым ясно +35.4 +20.2 41 +41 +60 опасность
перегрева
1008.2 953.2
00 18.05 В 5 5000 м ясно +34.0 +19.1 42 +39 +40 очень
душно
1004.9 950.5 +22.4 +37.0
03 18.05 ЮВ 2 3000 м мгла {туман} 4/0
[As trans]
+31.0 +18.4 47 +36 +36 очень
душно
1005.7 951.5
06 18.05 В 5 1000 м мгла {туман} ясно +26.0 +20.4 71 +32 +32 очень
душно
1005.8 951.5 +22.4 +37.0
09 18.05 В 2 1000 м мгла {туман} ясно +23.0 +19.9 83 +30 +30 очень
душно
1005.5 950.8
15 18.05 В 1 1000 м дым 3/3 700 м
[Sc]
+25.4 +19.7 71 +31 +38 очень
душно
1007.0 951.3
06 19.05 В 3 1000 м мгла {туман} ясно +25.2 +15.9 56 +28 +28 жарко 1003.8 949.5 +20.6 +35.8
09 19.05 В 3 1000 м мгла {туман} 4/4 840 м
[Sc]
+22.8 +15.9 65 +27 +27 душно 1003.9 949.2
12 19.05 В 1 1000 м дым ясно +21.4 +16.3 73 +25 +25 комфорт 1005.1 949.8 +21.4 +35.8
15 19.05 С 1 2000 м дым 4/4 870 м
[Sc]
+24.8 +17.8 65 +29 +35 душно 1007.2 951.5
18 19.05 ЮВ 3 2000 м дым 3/3 1080 м
[Sc]
+29.4 +20.8 60 +37 +49 очень
душно
1007.2 951.4 +21.4 +30.0
21 19.05 ЮВ 3 2000 м дым 1/1 1140 м
[Sc]
+30.0 +20.8 58 +37 +49 очень
душно
1005.5 950.2
00 20.05 В 2 3000 м мгла {туман} 5/1 1000 м
[Cu hum As trans]
+30.0 +21.5 60 +38 +39 очень
душно
1002.8 948.1 +21.4 +32.8
06 20.05 В 5 1000 м мгла {туман} 9/9 660 м
[Sc]
+26.0 +20.7 73 +33 +33 очень
душно
1006.6 951.8 +21.4 +32.8
09 20.05 В 4 1000 м мгла {туман} 9/9 240 м
[St]
+23.6 +21.7 89 +30 +30 очень
душно
1006.6 951.5
12 20.05 ЮВ 3 1000 м слабая морось 10/10 100 м
[Frnb]
+22.8 +21.7 94 +31 +31 очень
душно
1008.4 952.8 0.2
15 20.05 В 1 1000 м слабая морось 10/10 120 м
[Frnb]
+22.8 +21.7 94 +31 +31 очень
душно
1010.6 954.7 0.6
18 20.05 В 1 1000 м дым 10/10 300 м
[Sc]
+25.4 +21.5 79 +32 +32 очень
душно
1011.1 955.0 0.0

 

Местоположение метеостанции Monterrey (Мексика): широта 25.73 долгота -100.30 высота над уровнем моря 515 м.

В архиве по умолчанию представлена погода в Monterrey за последнюю неделю. Архивные данные за месяц целиком и за предыдущие месяцы, начиная с января 2011 года, Вы можете получить, выбрав интересующий диапазон дат из раскрывающегося списка и нажав кнопку "Ввод!".


*Определитесь, кто Вы:
робот инопланетянин человек

Внимание! Время в таблицах - всемирное. Для получения местного времени необходимо прибавить поправку, которая в Monterrey равна -6 ч.

Смотрите также архив погоды в соседних городах и на ближайших метеорологических станциях:

Погода в Saltillo (Мексика) (81 км)
Погода в Monclova (Мексика) (168 км)
Погода в Ciudad Victoria (Мексика) (252 км)
Погода в Soto La Marina (Мексика) (304 км)
Погода в Torreon (Мексика) (312 км)
Погода в Piedras Negras (Мексика) (331 км)
Погода в Zacatecas (Мексика) (397 км)
Погода в San Luis Potosi (Мексика) (400 км)
Погода в Sombrerete (Мексика) (407 км)
Погода в Rio Verde (Мексика) (424 км)

Пояснения к столбцам:

Ветер - указаны скорость ветра в м/с - средняя за 10 мин, порывы в срок и между сроками (в фигурных скобках) и направление, откуда дует ветер: С - северный, СВ - северо-восточный, В - восточный, ЮВ - юго-восточный, Ю - южный, ЮЗ - юго-западный, З - западный, СЗ - северо-западный.
Видимость - горизонтальная дальность видимости в метрах или километрах. При видимости от 1 до 10 км при отсутствии осадков обычно наблюдается дымка, при ухудшении видимости до 1 км и менее - туман. В сухую погоду видимость может ухудшаться дымом, пылью или мглою.
Явления - указаны атмосферные явления, наблюдавшиеся в срок или в последний час перед сроком; фигурными скобками обозначены явления, наблюдавшиеся между сроками (за 1-3 часа до срока); квадратными скобками обозначены град или гололедные отложения с указанием их диаметра в мм.
Облачность - указаны через наклонную черту общая и нижняя облачность в баллах и высота нижней границы облаков в метрах; квадратными скобками обозначены формы облаков: Ci - перистые, Cs - перисто-слоистые, Cc - перисто-кучевые, Ac - высококучевые, As - высокослоистые, Sc - слоисто-кучевые, Ns - слоисто-дождевые, Cu - кучевые, Cb - кучево-дождевые. Подробнее классификацию облаков см. в Атласе облаков (PDF).
T - Температура воздуха - температура, измеренная на высоте 2 м над землей.
Td - Температура точки росы - температура, при понижении до которой содержащийся в воздухе водяной пар достигнет насыщения.
f - Относительная влажность воздуха - влажноcть воздуха, измеренная на высоте 2 м над землей.
Te - Эффективная температура - температура, которую ощущает одетый по сезону человек в тени. Характеристика душности погоды. При расчете учитывается влияние влажности воздуха и скорости ветра на теплоощущения человека.
Tes - Эффективная температура на солнце - температура, которую ощущает человек, с поправкой на солнечный нагрев. Характеристика знойности погоды. Зависит от высоты солнца над горизонтом, облачности и скорости ветра. Ночью, в пасмурную погоду, а также при ветре 12 м/с и более поправка равна нулю.
P - Атмосферное давление - приведенное к уровню моря атмосферное давление.
Po - Атмосферное давление - измеренное на уровне метеостанции атмосферное давление.
Tmin - Минимальная температура - минимум температуры воздуха на высоте 2 м над землей.
Tmax - Максимальная температура - максимум температуры воздуха на высоте 2 м над землей.
R - Количество осадков - Количество выпавших осадков за период времени, мм. При наведении курсора мыши на число - период времени, за который выпало указанное количество осадков.
R24 - Количество осадков - Количество выпавших осадков за 24 часа, мм.
S - Снежный покров - Высота снежного покрова, см. При наведении курсора мыши на число - состояние снежного покрова и степень покрытия местности в баллах.